{"data":{"norad_id":56037,"intl_designator":"2023-042BD","name":"STARLINK-5758","alt_names":[],"object_type":"PAYLOAD","status":"ACTIVE","operator":null,"country":"US","launch_date":"2023-03-24","launch_site_code":"AFETR","launch_vehicle":null,"mission":null,"orbit_class":"UNKNOWN","rcs_meters":null,"size_class":null,"mass_kg":null,"dimensions":null,"purposes":["comms"],"wikipedia_slug":null,"has_3d_model":false,"image_url":null,"decayed_at":null,"tle_current":{"epoch":"2026-05-25T04:50:09.182688Z","epoch_age_seconds":53646,"freshness":"FRESH","line1":"1 56037U 23042BD  26145.20149517  .00000151  00000+0  15018-4 0  9994","line2":"2 56037  43.0058 318.6506 0001758 272.0049  88.0602 15.27577739174905","mean_motion":15.27577739,"eccentricity":0.0001758,"inclination_deg":43.0058,"raan_deg":318.6506,"arg_perigee_deg":272.0049,"mean_anomaly_deg":88.0602,"bstar":1.5018e-5,"rev_number":17490,"period_min":94.266888239853,"perigee_km":481.8496685895,"apogee_km":484.26206400129,"semimajor_km":6861.1928662954,"source":"CELESTRAK","updated_at":"2026-05-25T13:38:17.951984Z"}}}